Radiation Dose at Monitoring Post of Fukushima Daini Nuclear Power Station
Date,Time,MP-1(microSv/h),MP-2(microSv/h),MP-3(microSv/h),MP-4(microSv/h),MP-5(microSv/h),MP-6(microSv/h),MP-7(microSv/h),Wind Direction,Wind Velocity(m/s),Rain
2020/08/08,00:00,0.174,0.160,0.260,0.249,0.247,0.136,0.083,north,2.2,No
2020/08/08,00:10,0.174,0.160,0.261,0.251,0.248,0.137,0.083,north-northwest,1.6,No
2020/08/08,00:20,0.175,0.158,0.263,0.250,0.245,0.137,0.083,north-northwest,2.1,No
2020/08/08,00:30,0.174,0.160,0.261,0.247,0.245,0.136,0.083,north-northwest,1.5,Yes
2020/08/08,00:40,0.172,0.159,0.259,0.252,0.249,0.137,0.084,northeast,2.3,No
2020/08/08,00:50,0.175,0.158,0.262,0.250,0.248,0.138,0.083,north-northwest,1.0,No
2020/08/08,01:00,0.174,0.159,0.262,0.249,0.246,0.137,0.083,north-northwest,1.2,No
2020/08/08,01:10,0.174,0.160,0.258,0.250,0.248,0.137,0.084,west-northwest,0.6,No
2020/08/08,01:20,0.175,0.159,0.261,0.251,0.249,0.137,0.083,-,CALM,Yes
2020/08/08,01:30,0.175,0.158,0.262,0.249,0.247,0.138,0.083,-,CALM,Yes
2020/08/08,01:40,0.173,0.160,0.260,0.249,0.245,0.136,0.083,-,CALM,Yes
2020/08/08,01:50,0.173,0.160,0.261,0.252,0.249,0.137,0.084,-,CALM,No
2020/08/08,02:00,0.176,0.158,0.263,0.249,0.247,0.137,0.083,north-northeast,1.0,No
2020/08/08,02:10,0.174,0.160,0.260,0.249,0.247,0.137,0.083,north-northeast,1.5,No
2020/08/08,02:20,0.174,0.159,0.260,0.251,0.247,0.136,0.084,-,CALM,Yes
2020/08/08,02:30,0.175,0.157,0.262,0.251,0.250,0.138,0.084,-,CALM,No
2020/08/08,02:40,0.174,0.158,0.261,0.249,0.246,0.137,0.083,-,CALM,No
2020/08/08,02:50,0.173,0.159,0.259,0.249,0.245,0.135,0.083,north,1.3,No
2020/08/08,03:00,0.176,0.158,0.263,0.252,0.249,0.137,0.084,northwest,1.4,No
2020/08/08,03:10,0.175,0.159,0.262,0.248,0.248,0.137,0.083,north-northwest,1.6,No
2020/08/08,03:20,0.173,0.159,0.260,0.249,0.247,0.136,0.084,north-northeast,2.0,No
2020/08/08,03:30,0.175,0.158,0.262,0.252,0.246,0.137,0.084,north,2.7,Yes
2020/08/08,03:40,0.176,0.158,0.262,0.251,0.249,0.137,0.083,north,1.6,Yes
2020/08/08,03:50,0.174,0.161,0.260,0.249,0.248,0.139,0.084,north-northwest,3.3,Yes
2020/08/08,04:00,0.175,0.159,0.263,0.252,0.247,0.138,0.085,north,3.5,No
2020/08/08,04:10,0.175,0.161,0.263,0.250,0.251,0.139,0.084,north-northwest,2.4,No
2020/08/08,04:20,0.175,0.161,0.260,0.250,0.249,0.138,0.085,north-northwest,1.8,No
2020/08/08,04:30,0.176,0.160,0.262,0.252,0.245,0.137,0.085,west-northwest,0.9,No
2020/08/08,04:40,0.177,0.161,0.263,0.250,0.250,0.138,0.085,west,1.0,No
2020/08/08,04:50,0.175,0.161,0.259,0.250,0.250,0.138,0.084,north-northwest,1.0,No
2020/08/08,05:00,0.175,0.160,0.263,0.252,0.245,0.137,0.086,south-southwest,2.3,Yes
2020/08/08,05:10,0.177,0.160,0.263,0.250,0.249,0.137,0.085,north-northwest,1.6,No
2020/08/08,05:20,0.175,0.161,0.260,0.248,0.248,0.138,0.085,north-northwest,2.2,No
2020/08/08,05:30,0.175,0.160,0.261,0.252,0.246,0.137,0.087,north-northwest,1.9,No
2020/08/08,05:40,0.176,0.159,0.262,0.251,0.247,0.138,0.085,north-northwest,1.7,No
2020/08/08,05:50,0.173,0.160,0.260,0.248,0.249,0.137,0.083,north-northwest,3.2,No
2020/08/08,06:00,0.174,0.159,0.260,0.251,0.246,0.137,0.084,north,3.5,No
2020/08/08,06:10,0.175,0.158,0.262,0.251,0.246,0.137,0.083,north-northwest,3.4,No
2020/08/08,06:20,0.174,0.159,0.260,0.247,0.249,0.138,0.084,north-northwest,3.9,No
2020/08/08,06:30,0.176,0.158,0.261,0.250,0.248,0.137,0.084,north-northwest,3.3,No
2020/08/08,06:40,0.175,0.159,0.262,0.251,0.245,0.137,0.084,north-northwest,2.9,No
2020/08/08,06:50,0.174,0.159,0.260,0.248,0.248,0.136,0.083,north-northwest,2.1,No
2020/08/08,07:00,0.176,0.158,0.257,0.247,0.248,0.137,0.084,north,1.6,No
2020/08/08,07:10,0.175,0.159,0.261,0.250,0.246,0.137,0.084,north-northeast,1.9,No
2020/08/08,07:20,0.174,0.159,0.261,0.249,0.244,0.136,0.083,north-northeast,1.9,No
2020/08/08,07:30,0.176,0.157,0.259,0.248,0.247,0.137,0.083,north-northeast,2.0,No
2020/08/08,07:40,0.175,0.160,0.262,0.250,0.248,0.137,0.084,north,2.2,No
2020/08/08,07:50,0.173,0.159,0.262,0.250,0.245,0.136,0.084,north,2.4,No
2020/08/08,08:00,0.175,0.158,0.259,0.248,0.244,0.135,0.082,north-northwest,2.6,No
2020/08/08,08:10,0.175,0.160,0.260,0.247,0.248,0.137,0.083,north,3.5,No
2020/08/08,08:20,0.173,0.158,0.262,0.250,0.247,0.136,0.083,north,3.6,No
2020/08/08,08:30,0.175,0.157,0.261,0.249,0.247,0.136,0.083,north-northwest,3.7,No
2020/08/08,08:40,0.174,0.159,0.257,0.246,0.244,0.137,0.083,north-northwest,3.2,No
2020/08/08,08:50,0.172,0.159,0.258,0.246,0.244,0.137,0.084,north,3.5,No
2020/08/08,09:00,0.174,0.158,0.261,0.250,0.249,0.136,0.083,north,4.6,No
2020/08/08,09:10,0.174,0.158,0.261,0.250,0.248,0.135,0.083,north,5.7,No
2020/08/08,09:20,0.174,0.159,0.258,0.249,0.245,0.136,0.083,north-northwest,4.8,No
2020/08/08,09:30,0.174,0.158,0.261,0.246,0.245,0.136,0.083,north-northwest,4.8,Yes
2020/08/08,09:40,0.175,0.158,0.262,0.251,0.248,0.135,0.083,north-northwest,4.6,No
2020/08/08,09:50,0.174,0.159,0.258,0.250,0.247,0.135,0.083,north-northwest,5.9,No
2020/08/08,10:00,0.175,0.159,0.260,0.248,0.245,0.136,0.082,north-northwest,5.2,No
2020/08/08,10:10,0.175,0.158,0.263,0.247,0.244,0.138,0.083,north,3.6,No
2020/08/08,10:20,0.175,0.157,0.260,0.249,0.249,0.137,0.083,north-northwest,5.5,No
2020/08/08,10:30,0.174,0.159,0.259,0.252,0.248,0.136,0.083,north-northwest,4.4,No
2020/08/08,10:40,0.173,0.159,0.258,0.250,0.247,0.136,0.083,north-northwest,4.2,No
2020/08/08,10:50,0.176,0.159,0.261,0.248,0.244,0.137,0.082,north-northwest,4.2,No
2020/08/08,11:00,0.175,0.158,0.262,0.247,0.245,0.137,0.082,north-northwest,3.3,No
2020/08/08,11:10,0.174,0.158,0.261,0.247,0.246,0.136,0.082,north,3.3,No
2020/08/08,11:20,0.173,0.158,0.260,0.248,0.245,0.137,0.083,north,3.0,No
2020/08/08,11:30,0.173,0.157,0.260,0.248,0.246,0.137,0.082,north-northeast,4.4,No
2020/08/08,11:40,0.175,0.157,0.259,0.247,0.246,0.136,0.082,north-northeast,3.9,No
2020/08/08,11:50,0.175,0.158,0.260,0.247,0.245,0.135,0.082,north-northeast,4.3,No
2020/08/08,12:00,0.174,0.158,0.259,0.247,0.247,0.136,0.083,north,3.8,No
2020/08/08,12:10,0.174,0.161,0.260,0.247,0.245,0.137,0.082,north,3.9,No
2020/08/08,12:20,0.173,0.159,0.259,0.248,0.245,0.136,0.082,north,3.1,No
2020/08/08,12:30,0.174,0.158,0.259,0.246,0.247,0.137,0.083,north-northeast,2.6,No
2020/08/08,12:40,0.175,0.158,0.259,0.248,0.244,0.136,0.083,north,2.8,No
2020/08/08,12:50,0.174,0.159,0.259,0.253,0.246,0.137,0.083,north,3.5,No
2020/08/08,13:00,0.173,0.158,0.263,0.251,0.247,0.138,0.083,north,3.1,No
2020/08/08,13:10,0.175,0.159,0.261,0.251,0.250,0.136,0.083,north,2.6,No
2020/08/08,13:20,0.176,0.158,0.261,0.247,0.247,0.137,0.082,north-northeast,1.5,No
2020/08/08,13:30,0.175,0.158,0.258,0.249,0.246,0.137,0.084,north,2.0,No
2020/08/08,13:40,0.173,0.160,0.261,0.252,0.246,0.136,0.083,north-northeast,2.3,No
2020/08/08,13:50,0.174,0.159,0.262,0.251,0.247,0.138,0.083,north-northeast,2.8,No
2020/08/08,14:00,0.174,0.158,0.261,0.249,0.250,0.137,0.082,north-northeast,2.2,No
2020/08/08,14:10,0.174,0.159,0.260,0.249,0.249,0.136,0.083,north-northeast,2.1,No
2020/08/08,14:20,0.174,0.160,0.259,0.251,0.247,0.137,0.083,north-northeast,2.4,No
2020/08/08,14:30,0.174,0.158,0.263,0.251,0.245,0.136,0.083,north-northeast,1.9,No
2020/08/08,14:40,0.173,0.157,0.262,0.250,0.245,0.138,0.082,north-northeast,1.9,No
2020/08/08,14:50,0.173,0.159,0.260,0.249,0.249,0.136,0.083,north-northeast,1.8,No
2020/08/08,15:00,0.175,0.159,0.259,0.247,0.248,0.136,0.083,north-northeast,1.9,No
2020/08/08,15:10,0.175,0.158,0.260,0.251,0.245,0.136,0.083,north,1.4,No
2020/08/08,15:20,0.175,0.158,0.262,0.252,0.245,0.136,0.083,north-northwest,1.9,No
2020/08/08,15:30,0.174,0.158,0.262,0.249,0.244,0.137,0.083,north,1.5,No
2020/08/08,15:40,0.174,0.159,0.260,0.249,0.246,0.137,0.083,north-northeast,2.0,No
2020/08/08,15:50,0.175,0.159,0.258,0.248,0.250,0.136,0.083,north,1.6,No
2020/08/08,16:00,0.175,0.158,0.261,0.251,0.248,0.135,0.082,north-northeast,2.5,No
2020/08/08,16:10,0.174,0.159,0.263,0.251,0.247,0.137,0.083,north-northeast,1.6,No
2020/08/08,16:20,0.176,0.158,0.262,0.251,0.246,0.136,0.083,north-northeast,2.6,No
2020/08/08,16:30,0.174,0.158,0.259,0.248,0.248,0.137,0.083,north-northeast,2.4,No
2020/08/08,16:40,0.174,0.159,0.263,0.253,0.248,0.136,0.083,northeast,3.3,No
2020/08/08,16:50,0.175,0.159,0.262,0.251,0.246,0.136,0.082,northeast,1.4,No
2020/08/08,17:00,0.175,0.158,0.260,0.248,0.246,0.137,0.084,north-northeast,2.9,No
2020/08/08,17:10,0.172,0.157,0.262,0.251,0.249,0.137,0.083,north-northeast,2.5,No
2020/08/08,17:20,0.176,0.159,0.262,0.250,0.248,0.136,0.083,north,2.9,No
2020/08/08,17:30,0.174,0.159,0.259,0.249,0.246,0.137,0.084,north,2.8,No
2020/08/08,17:40,0.174,0.159,0.262,0.249,0.248,0.137,0.083,north,2.4,No
2020/08/08,17:50,0.175,0.160,0.262,0.251,0.248,0.135,0.083,north-northwest,2.8,No
2020/08/08,18:00,0.174,0.159,0.260,0.249,0.246,0.137,0.083,north-northwest,2.5,No
2020/08/08,18:10,0.174,0.158,0.262,0.249,0.248,0.137,0.084,north-northwest,1.5,No
2020/08/08,18:20,0.176,0.159,0.262,0.251,0.249,0.137,0.084,north,1.3,Yes
2020/08/08,18:30,0.175,0.160,0.259,0.249,0.247,0.138,0.085,northwest,0.8,Yes
2020/08/08,18:40,0.175,0.160,0.263,0.250,0.247,0.138,0.084,-,CALM,No
2020/08/08,18:50,0.176,0.161,0.261,0.250,0.248,0.136,0.084,north-northwest,0.8,Yes
2020/08/08,19:00,0.174,0.159,0.259,0.246,0.244,0.137,0.084,north-northwest,0.9,No
2020/08/08,19:10,0.176,0.160,0.262,0.250,0.247,0.138,0.085,-,CALM,No
2020/08/08,19:20,0.175,0.159,0.260,0.249,0.247,0.136,0.083,-,CALM,No
2020/08/08,19:30,0.173,0.158,0.261,0.246,0.244,0.137,0.084,-,CALM,No
2020/08/08,19:40,0.175,0.160,0.261,0.249,0.247,0.137,0.084,-,CALM,No
2020/08/08,19:50,0.174,0.157,0.259,0.246,0.247,0.136,0.084,-,CALM,No
2020/08/08,20:00,0.173,0.158,0.261,0.248,0.243,0.136,0.084,south-southeast,0.8,No
2020/08/08,20:10,0.176,0.159,0.260,0.249,0.247,0.136,0.084,south-southeast,1.5,No
2020/08/08,20:20,0.174,0.157,0.258,0.245,0.247,0.136,0.083,south-southeast,1.4,No
2020/08/08,20:30,0.174,0.159,0.263,0.248,0.244,0.137,0.084,south,0.6,No
2020/08/08,20:40,0.176,0.159,0.259,0.249,0.247,0.137,0.083,south-southwest,0.9,No
2020/08/08,20:50,0.174,0.159,0.260,0.245,0.246,0.136,0.083,south,1.7,No
2020/08/08,21:00,0.175,0.159,0.261,0.249,0.244,0.137,0.083,south,3.2,No
2020/08/08,21:10,0.174,0.159,0.258,0.246,0.247,0.136,0.083,south-southwest,3.1,No
2020/08/08,21:20,0.172,0.159,0.260,0.247,0.246,0.136,0.083,south-southwest,1.4,No
2020/08/08,21:30,0.176,0.159,0.261,0.248,0.245,0.137,0.083,south-southwest,1.8,No
2020/08/08,21:40,0.174,0.159,0.259,0.248,0.247,0.136,0.082,south,1.3,No
2020/08/08,21:50,0.174,0.159,0.261,0.248,0.245,0.135,0.083,south,2.7,No
2020/08/08,22:00,0.174,0.158,0.259,0.248,0.246,0.137,0.083,south,4.0,No
2020/08/08,22:10,0.174,0.159,0.260,0.246,0.247,0.136,0.083,south,3.4,No
2020/08/08,22:20,0.175,0.159,0.261,0.249,0.244,0.136,0.083,south,3.6,No
2020/08/08,22:30,0.175,0.158,0.260,0.248,0.247,0.137,0.083,south,4.2,No
2020/08/08,22:40,0.174,0.160,0.261,0.247,0.246,0.136,0.084,south,4.1,No
2020/08/08,22:50,0.175,0.158,0.259,0.249,0.243,0.136,0.084,south,2.2,No
2020/08/08,23:00,0.175,0.159,0.260,0.246,0.248,0.137,0.083,south-southwest,2.8,No
2020/08/08,23:10,0.173,0.159,0.262,0.248,0.246,0.136,0.083,south,3.2,No
2020/08/08,23:20,0.174,0.158,0.260,0.250,0.245,0.137,0.083,south-southeast,3.3,No
2020/08/08,23:30,0.174,0.160,0.260,0.246,0.247,0.136,0.083,south-southeast,2.7,No
2020/08/08,23:40,0.175,0.160,0.261,0.249,0.245,0.135,0.084,south-southeast,2.8,No
2020/08/08,23:50,0.175,0.158,0.260,0.247,0.245,0.136,0.084,south,3.1,No
